Torna al catalogo

STARLINK-1434

AttivoComunicazioniVLEO
NORAD 45712·PAYLOAD·🇺🇸 United States

Lanciato Jun 4, 2020 da Cape Canaveral Space Force Station

Loading…

Prossimi Passaggi (prossime 24 ore)

TLE

AggiornatoSource: CelesTrak SupGP

Epoca: Sep 15, 2026, 00:34 UTC

1 45712C 20035BH  26258.02409722  .00012943  00000+0  29416-3 0  2589
2 45712  53.0459 212.2106 0004593  52.9443  55.6128 15.42408937    10

Traccia STARLINK-1434 in tempo reale con AllMySat

Download on the App Store